Tracking 17884 objects as of 7-December-2016
HD Live streaming from Space Station
objects crossing your sky now

KOMPSAT 3

Track KOMPSAT 3 now!
10-day predictions
KOMPSAT 3 is classified as:


NORAD ID: 38338
Int'l Code: 2012-025B
Perigee: 689.3 km
Apogee: 701.9 km
Inclination: 98.2 °
Period: 98.5 minutes
Semi major axis: 7066 km
RCS: 5.2993 m2 (large)
Launch date: May 17, 2012
Source: South Korea (SKOR)
Launch site: TANEGASHIMA SPACE CENTER (TNSTA)
Uplink (MHz):
Downlink (MHz):
Beacon (MHz):
Mode:
Call sign:
Status:

Your satellite tracking list
Your tracking list is empty





NASA's NSSDC Master Catalog

Two Line Element Set (TLE):
1 38338U 12025B   16342.09918542  .00000100  00000-0  29712-4 0  9995
2 38338  98.1783 276.9866 0008939 209.4496 150.6206 14.61470115243122
Source of the keplerian elements: AFSPC